Regional Weather Roundup
Issued by NWS Boston, MA

Home | Current Version | Previous Version | Text Only | Print | Product List | Glossary On
Versions: 1 2 3 4 5 6 7 8 9 10 11 12 13 14 15 16 17 18 19 20 21 22 23 24 25 26 27 28 29 30 31 32 33 34 35 36 37 38 39 40 41 42 43 44 45 46 47 48 49 50
000
ASUS41 KBOX 051210
RWRBOX

REGIONAL WEATHER ROUNDUP
NATIONAL WEATHER SERVICE TAUNTON MA
800 AM EDT TUE MAY 05 2015

NOTE:  "FAIR" INDICATES FEW OR NO CLOUDS BELOW 12,000 FEET WITH NO
SIGNIFICANT WEATHER AND/OR OBSTRUCTIONS TO VISIBILITY.  THE FOLLOWING
OBSERVATION LOCATIONS DO NOT REPORT PRESENT WEATHER...PROVINCETOWN...
SMITHFIELD...BLOCK ISLAND...KEENE...AND OXFORD.

MAZALL-051300-
EASTERN MASSACHUSETTS

CITY           SKY/WX    TMP DP  RH WIND       PRES   REMARKS
BOSTON         CLOUDY    68  48  48 W8        30.16R
6HR MIN TEMP:  67; 6HR MAX TEMP:  69;

BEVERLY        PTSUNNY   67  48  50 W6        30.16R
LAWRENCE       PTSUNNY   68  50  52 NW5       30.18R
BEDFORD        CLOUDY    65  50  58 W7        30.16R
BLUE HILL        N/A     64  47  53 W10       30.17R
NORWOOD        CLOUDY    66  47  50 W6        30.17R
MARSHFIELD     CLOUDY    64  46  52 W5        30.17R
PLYMOUTH       CLOUDY    60  47  61 SW6       30.17R
TAUNTON        CLOUDY    64  47  53 CALM      30.17R
NEW BEDFORD    PTSUNNY   60  47  61 SW5       30.17R
$$

MAZALL-051300-
CAPE COD AND THE ISLANDS

CITY           SKY/WX    TMP DP  RH WIND       PRES   REMARKS
FALMOUTH       PTSUNNY   57  46  67 MISG      30.17
HYANNIS        PTSUNNY   57  48  72 SW10      30.16R
CHATHAM        PTSUNNY   56  48  74 SW10G20   30.18R
PROVINCETOWN   CLOUDY    54  45  71 SW8       30.17R
NANTUCKET      MOSUNNY   55  47  74 SW15      30.20R
MARTHAS VNYRD  MOSUNNY  N/A N/A N/A W10       30.19R
$$

MAZALL-051300-
CENTRAL AND WESTERN MASSACHUSETTS

CITY           SKY/WX    TMP DP  RH WIND       PRES   REMARKS
WORCESTER      LGT RAIN  59  53  80 W9        30.20R
6HR MIN TEMP:  59; 6HR MAX TEMP:  67; 6HR PCP:  0.02;

FITCHBURG      CLOUDY    67  52  58 NW6       30.18R
ORANGE         CLOUDY    65  52  62 W5        30.19R
SPRINGFIELD    LGT RAIN  61  53  76 CALM      30.17R
WESTFIELD      CLOUDY    67  52  58 NW8       30.18R
NORTH ADAMS    PTSUNNY   64  52  64 NW7       30.22R
PITTSFIELD     CLOUDY    61  53  75 W6        30.21R
$$

RIZALL-051300-
RHODE ISLAND

CITY           SKY/WX    TMP DP  RH WIND       PRES   REMARKS
PROVIDENCE     PTSUNNY   65  47  52 W5        30.18R
6HR MIN TEMP:  58; 6HR MAX TEMP:  66;

NEWPORT        PTSUNNY   59  48  67 VRB3      30.18R
BLOCK ISLAND   SUNNY     55  46  71 W18       30.20R
SMITHFIELD     CLOUDY    63  45  51 W3        30.19R
WESTERLY       MOSUNNY   61  48  62 SW6       30.20R
$$

CTZALL-051300-
CONNECTICUT

CITY           SKY/WX    TMP DP  RH WIND       PRES   REMARKS
BRADLEY INTL   CLOUDY    66  49  54 CALM      30.18R
6HR MIN TEMP:  62; 6HR MAX TEMP:  67;

HARTFORD       PTSUNNY   65  48  54 S3        30.18R
BRIDGEPORT     SUNNY     62  51  67 SW3       30.19R
DANBURY        MOSUNNY   65  49  56 SW3       30.21R
GROTON         MOSUNNY   59  49  69 SW5       30.19R
NEW HAVEN      MOSUNNY   64  50  60 CALM      30.19R
CHESTER        NOT AVBL
MERIDEN        PTSUNNY   65  48  54 CALM      30.19R
WILLIMANTIC    PTSUNNY   65  48  54 CALM      30.19R
$$

MEZ002-015-021-024-NHZ003-005-008-011-012-014-VTZ005-008-051300-
NORTHERN NEW ENGLAND

CITY           SKY/WX    TMP DP  RH WIND       PRES   REMARKS
PORTLAND ME    MOSUNNY   69  53  56 NW13      30.14R
6HR MIN TEMP:  63; 6HR MAX TEMP:  72;

BANGOR ME      PTSUNNY   62  42  47 W14G23    30.11R
CONCORD NH     MOSUNNY   68  49  50 N13       30.17R
MANCHESTER NH  PTSUNNY   70  49  47 NW10      30.16R
NASHUA NH      PTSUNNY   69  53  56 N10       30.17R
PORTSMOUTH NH  PTSUNNY   70  50  49 NW17      30.13R
JAFFREY NH     CLOUDY    66  51  58 VRB7      30.20R
KEENE NH       PTSUNNY   66  48  52 NW7       30.20R
BURLINGTON VT  PTSUNNY   57  45  64 N8        30.26R
MT. WASHINGTON FOG       32  32 100 NW55        N/A  VSB 0   WCI  14
$$

NYZ052-076-051300-
EASTERN NEW YORK

CITY           SKY/WX    TMP DP  RH WIND       PRES   REMARKS
ALBANY         PTSUNNY   66  53  63 NW10      30.22R
6HR MIN TEMP:  63; 6HR MAX TEMP:  69;

NEW YORK CITY  MOSUNNY   70  49  47 CALM      30.19R
6HR MIN TEMP:  65; 6HR MAX TEMP:  71;

$$

ANZALL-051300-
MARINE OBSERVATIONS

STATION/POSITION TIME  TEMP    WIND        PRES    VSBY  WAVE
                       AIR SEA DIR/SP/G                  HT/PER
                 (UTC) (F)     (DEG/KT/KT) (MB)    (MI)  (FT/S)
BOSTON BUOY      1150   53 46  240/  8/  8   N/A           2/10
BUZZARDS BAY     1100          230/ 20/ 21   N/A
NANTUCKET SOUND  1150   53 49  240/ 14/ 16   N/A           2/ 3
MASS BAY-STELLWA 1104   53 47  250/  8/ 10   N/A    1 7/8  2/ 4
ISLE OF SHOALS   1100   67     300/ 14/ 14   N/A
S OF BLOCK IS    1108      46                N/A           4/ 5
$$

......................KEY.........................
  SKY/WX - SKY CONDITION/PRESENT WEATHER
  TMP    - TEMPERATURE IN FAHRENHEIT
  DWPT   - DEWPOINT IN FAHRENHEIT
  RH     - RELATIVE HUMIDITY IN PERCENT
  WIND   - DIRECTION AND SPEED IN MPH
  PRES   - MEAN SEA LEVEL PRESSURE IN INCHES OF HG
  WCI    - WIND CHILL INDEX
  VSB    - VISIBILITY IN MILES
  HX     - HEAT INDEX
  TC     - TEMPERATURE IN CELSIUS
  VRB    - VARIABLE WIND DIRECTION
  N/A    - NOT AVAILABLE


USA.gov is the U.S. government's official web portal to all federal, state and local government web resources and services.